WIF6V ENZV-EGPD

Flight info

Callsign WIF6V
Flight time 1h 2m
Altitude 24000
Route LAPOT DCT KLONN DCT OVDAN P600 ADN
Aircraft DH8B/M-SDFGR/S

Departure

Time 2026-04-08 11:54
Airport Stavanger Airport, Sola (ENZV)

Arrival

Time 2026-04-08 12:57
Airport Aberdeen International Airport (EGPD)
Time Latitude Longitude Altitude Speed Heading
2026-04-08 11:50 58.89133 5.63741 18 ft 0 kts 179°
2026-04-08 11:54 58.88860 5.63748 22 ft 87 kts 180°
2026-04-08 11:54 58.88054 5.63776 244 ft 130 kts 176°
2026-04-08 11:54 58.87132 5.63801 880 ft 141 kts 175°
2026-04-08 11:54 58.86077 5.63820 1321 ft 159 kts 177°
2026-04-08 11:55 58.84966 5.63827 2013 ft 160 kts 175°
2026-04-08 11:55 58.83861 5.63478 2723 ft 167 kts 198°
2026-04-08 11:55 58.83429 5.62990 3047 ft 171 kts 207°
2026-04-08 11:55 58.82612 5.61235 3782 ft 184 kts 234°
2026-04-08 11:56 58.82258 5.58795 4513 ft 192 kts 252°
2026-04-08 11:56 58.81886 5.56403 5229 ft 186 kts 243°
2026-04-08 11:56 58.81433 5.54047 5959 ft 185 kts 245°
2026-04-08 11:56 58.81043 5.51721 6678 ft 184 kts 248°
2026-04-08 11:57 58.80674 5.49367 7372 ft 183 kts 249°
2026-04-08 11:57 58.80295 5.47035 8073 ft 181 kts 250°
2026-04-08 11:57 58.79924 5.44733 8796 ft 179 kts 251°
2026-04-08 11:57 58.79562 5.42437 9534 ft 178 kts 252°
2026-04-08 11:58 58.79193 5.40164 10285 ft 177 kts 252°
2026-04-08 11:58 58.78824 5.37891 10965 ft 177 kts 253°
2026-04-08 11:58 58.78459 5.35615 11660 ft 177 kts 253°
2026-04-08 11:58 58.78090 5.33343 12364 ft 178 kts 253°
2026-04-08 11:59 58.77722 5.31090 13073 ft 178 kts 253°
2026-04-08 11:59 58.77358 5.28806 13792 ft 178 kts 254°
2026-04-08 11:59 58.76982 5.26522 14503 ft 179 kts 254°
2026-04-08 11:59 58.76614 5.24237 15161 ft 178 kts 254°
2026-04-08 12:00 58.76241 5.21954 15824 ft 179 kts 253°
2026-04-08 12:00 58.75865 5.19662 16490 ft 181 kts 254°
2026-04-08 12:00 58.75477 5.17240 16861 ft 196 kts 254°
2026-04-08 12:00 58.75059 5.14668 17275 ft 206 kts 253°
2026-04-08 12:01 58.74622 5.11978 17731 ft 213 kts 253°
2026-04-08 12:01 58.74170 5.09214 18204 ft 219 kts 253°
2026-04-08 12:01 58.73714 5.06419 18687 ft 223 kts 253°
2026-04-08 12:01 58.73243 5.03530 19113 ft 227 kts 253°
2026-04-08 12:02 58.72758 5.00603 19549 ft 231 kts 252°
2026-04-08 12:02 58.72266 4.97633 19987 ft 234 kts 252°
2026-04-08 12:02 58.71774 4.94616 20420 ft 238 kts 252°
2026-04-08 12:02 58.71272 4.91587 20860 ft 241 kts 252°
2026-04-08 12:03 58.70757 4.88488 21310 ft 244 kts 252°
2026-04-08 12:03 58.70241 4.85348 21767 ft 247 kts 252°
2026-04-08 12:03 58.69714 4.82187 22223 ft 249 kts 251°
2026-04-08 12:03 58.69182 4.79007 22677 ft 251 kts 252°
2026-04-08 12:04 58.68655 4.75836 23127 ft 253 kts 251°
2026-04-08 12:04 58.68112 4.72585 23581 ft 256 kts 251°
2026-04-08 12:04 58.67561 4.69294 23942 ft 263 kts 251°
2026-04-08 12:04 58.66989 4.65858 24005 ft 276 kts 252°
2026-04-08 12:05 58.66397 4.62310 24053 ft 285 kts 252°
2026-04-08 12:05 58.65798 4.58748 24591 ft 275 kts 252°
2026-04-08 12:05 58.65213 4.55303 25101 ft 269 kts 251°
2026-04-08 12:05 58.64632 4.51913 25594 ft 265 kts 251°
2026-04-08 12:06 58.64065 4.48538 25921 ft 269 kts 252°
2026-04-08 12:06 58.63476 4.45051 25975 ft 280 kts 251°
2026-04-08 12:06 58.62910 4.41403 25988 ft 289 kts 255°
2026-04-08 12:06 58.62410 4.37635 25986 ft 296 kts 255°
2026-04-08 12:07 58.61874 4.33780 25988 ft 300 kts 255°
2026-04-08 12:07 58.61322 4.29911 25982 ft 300 kts 254°
2026-04-08 12:07 58.60763 4.26098 25979 ft 300 kts 254°
2026-04-08 12:07 58.60202 4.22257 25970 ft 300 kts 254°
2026-04-08 12:08 58.59081 4.14537 25956 ft 299 kts 254°
2026-04-08 12:08 58.58516 4.10685 25954 ft 299 kts 254°
2026-04-08 12:08 58.57950 4.06822 25954 ft 300 kts 254°
2026-04-08 12:09 58.57395 4.03031 25945 ft 300 kts 254°
2026-04-08 12:09 58.56828 3.99188 25952 ft 299 kts 254°
2026-04-08 12:09 58.56261 3.95347 25947 ft 299 kts 254°
2026-04-08 12:09 58.55692 3.91497 25948 ft 299 kts 254°
2026-04-08 12:10 58.55121 3.87650 25940 ft 299 kts 254°
2026-04-08 12:10 58.54558 3.83855 25943 ft 299 kts 254°
2026-04-08 12:10 58.53987 3.80022 25939 ft 299 kts 254°
2026-04-08 12:10 58.53415 3.76191 25942 ft 299 kts 254°
2026-04-08 12:11 58.52842 3.72365 25944 ft 299 kts 254°
2026-04-08 12:11 58.52267 3.68537 25934 ft 299 kts 254°
2026-04-08 12:11 58.51694 3.64717 25931 ft 298 kts 254°
2026-04-08 12:11 58.51125 3.60942 25934 ft 298 kts 254°
2026-04-08 12:12 58.50549 3.57131 25932 ft 298 kts 254°
2026-04-08 12:12 58.49971 3.53314 25930 ft 298 kts 254°
2026-04-08 12:12 58.49395 3.49514 25929 ft 298 kts 254°
2026-04-08 12:12 58.48817 3.45716 25914 ft 297 kts 253°
2026-04-08 12:13 58.48238 3.41922 25913 ft 297 kts 254°
2026-04-08 12:13 58.47658 3.38119 25907 ft 298 kts 254°
2026-04-08 12:13 58.47075 3.34308 25906 ft 298 kts 254°
2026-04-08 12:13 58.46492 3.30512 25902 ft 298 kts 254°
2026-04-08 12:14 58.45916 3.26769 25899 ft 298 kts 253°
2026-04-08 12:14 58.45331 3.22973 25900 ft 298 kts 254°
2026-04-08 12:14 58.44743 3.19171 25900 ft 298 kts 254°
2026-04-08 12:14 58.44155 3.15374 25894 ft 298 kts 253°
2026-04-08 12:15 58.43564 3.11567 25895 ft 298 kts 253°
2026-04-08 12:15 58.42972 3.07769 25893 ft 298 kts 253°
2026-04-08 12:15 58.42386 3.04024 25886 ft 298 kts 253°
2026-04-08 12:15 58.41790 3.00224 25881 ft 298 kts 253°
2026-04-08 12:16 58.41194 2.96434 25876 ft 298 kts 253°
2026-04-08 12:16 58.40596 2.92638 25876 ft 298 kts 253°
2026-04-08 12:16 58.39996 2.88848 25870 ft 298 kts 253°
2026-04-08 12:16 58.39403 2.85105 25867 ft 298 kts 253°
2026-04-08 12:17 58.38782 2.81323 25856 ft 298 kts 251°
2026-04-08 12:17 58.38076 2.77611 25864 ft 298 kts 251°
2026-04-08 12:17 58.37373 2.73884 25860 ft 298 kts 251°
2026-04-08 12:17 58.36671 2.70163 25855 ft 298 kts 251°
2026-04-08 12:18 58.35975 2.66485 25855 ft 299 kts 251°
2026-04-08 12:18 58.35272 2.62753 25851 ft 299 kts 251°
2026-04-08 12:18 58.34575 2.59020 25848 ft 299 kts 251°
2026-04-08 12:18 58.33868 2.55290 25848 ft 299 kts 251°
2026-04-08 12:19 58.33161 2.51552 25844 ft 300 kts 251°
2026-04-08 12:19 58.32466 2.47856 25842 ft 300 kts 251°
2026-04-08 12:19 58.31750 2.44110 25843 ft 300 kts 251°
2026-04-08 12:19 58.31042 2.40366 25839 ft 300 kts 251°
2026-04-08 12:20 58.30332 2.36635 25934 ft 299 kts 251°
2026-04-08 12:20 58.29627 2.32959 26052 ft 299 kts 251°
2026-04-08 12:20 58.28919 2.29226 26165 ft 300 kts 251°
2026-04-08 12:20 58.28201 2.25497 26256 ft 300 kts 251°
2026-04-08 12:21 58.27484 2.21754 26258 ft 301 kts 252°
2026-04-08 12:21 58.26767 2.18004 26255 ft 301 kts 251°
2026-04-08 12:21 58.26048 2.14305 26252 ft 302 kts 251°
2026-04-08 12:21 58.25330 2.10557 26253 ft 302 kts 252°
2026-04-08 12:22 58.24604 2.06799 26254 ft 302 kts 251°
2026-04-08 12:22 58.23872 2.03047 26253 ft 302 kts 251°
2026-04-08 12:22 58.23163 1.99354 26251 ft 303 kts 251°
2026-04-08 12:22 58.22429 1.95606 26257 ft 303 kts 251°
2026-04-08 12:23 58.21698 1.91860 26255 ft 303 kts 251°
2026-04-08 12:23 58.20970 1.88090 26252 ft 303 kts 251°
2026-04-08 12:23 58.20228 1.84342 26250 ft 304 kts 251°
2026-04-08 12:23 58.19493 1.80568 26250 ft 304 kts 251°
2026-04-08 12:24 58.18769 1.76861 26251 ft 304 kts 251°
2026-04-08 12:24 58.18021 1.73104 26247 ft 304 kts 251°
2026-04-08 12:24 58.17287 1.69340 26243 ft 304 kts 251°
2026-04-08 12:24 58.16541 1.65563 26246 ft 305 kts 251°
2026-04-08 12:25 58.15799 1.61847 26248 ft 305 kts 251°
2026-04-08 12:25 58.15062 1.58078 26242 ft 305 kts 251°
2026-04-08 12:25 58.14309 1.54313 26244 ft 305 kts 251°
2026-04-08 12:25 58.13558 1.50546 26242 ft 305 kts 251°
2026-04-08 12:26 58.12816 1.46784 26236 ft 306 kts 251°
2026-04-08 12:26 58.12055 1.43013 26237 ft 306 kts 251°
2026-04-08 12:26 58.11302 1.39237 26237 ft 306 kts 251°
2026-04-08 12:26 58.10553 1.35475 26241 ft 306 kts 251°
2026-04-08 12:27 58.09797 1.31752 26238 ft 306 kts 251°
2026-04-08 12:27 58.09043 1.27978 26233 ft 307 kts 251°
2026-04-08 12:27 58.08281 1.24191 26236 ft 307 kts 251°
2026-04-08 12:27 58.07771 1.21689 26232 ft 307 kts 251°
2026-04-08 12:28 58.06760 1.16667 26240 ft 307 kts 251°
2026-04-08 12:28 58.06253 1.14160 26235 ft 308 kts 251°
2026-04-08 12:28 58.05481 1.10387 26234 ft 308 kts 251°
2026-04-08 12:28 58.04713 1.06593 26234 ft 308 kts 251°
2026-04-08 12:29 58.03941 1.02800 26234 ft 308 kts 251°
2026-04-08 12:29 58.03168 0.99024 26231 ft 309 kts 251°
2026-04-08 12:29 58.02398 0.95247 26232 ft 309 kts 251°
2026-04-08 12:29 58.01623 0.91468 26230 ft 309 kts 251°
2026-04-08 12:30 58.00853 0.87724 26232 ft 309 kts 250°
2026-04-08 12:30 58.00073 0.83924 26230 ft 309 kts 251°
2026-04-08 12:30 57.99291 0.80129 26230 ft 310 kts 250°
2026-04-08 12:30 57.98518 0.76390 26225 ft 310 kts 251°
2026-04-08 12:31 57.97735 0.72600 26222 ft 310 kts 250°
2026-04-08 12:31 57.96949 0.68804 26222 ft 310 kts 250°
2026-04-08 12:31 57.96162 0.65016 26217 ft 310 kts 250°
2026-04-08 12:31 57.95381 0.61261 26218 ft 310 kts 250°
2026-04-08 12:32 57.94592 0.57475 26216 ft 311 kts 250°
2026-04-08 12:32 57.93799 0.53681 26215 ft 311 kts 250°
2026-04-08 12:32 57.93006 0.49878 26214 ft 311 kts 250°
2026-04-08 12:32 57.92211 0.46089 26215 ft 311 kts 250°
2026-04-08 12:33 57.91425 0.42349 26212 ft 311 kts 250°
2026-04-08 12:33 57.90628 0.38548 26211 ft 311 kts 250°
2026-04-08 12:33 57.89828 0.34762 26213 ft 311 kts 250°
2026-04-08 12:33 57.89029 0.30970 26208 ft 311 kts 250°
2026-04-08 12:34 57.88228 0.27183 26204 ft 312 kts 250°
2026-04-08 12:34 57.87423 0.23393 26205 ft 312 kts 250°
2026-04-08 12:34 57.86632 0.19655 26207 ft 312 kts 250°
2026-04-08 12:34 57.85824 0.15860 26205 ft 312 kts 250°
2026-04-08 12:35 57.85018 0.12073 26200 ft 312 kts 250°
2026-04-08 12:35 57.84206 0.08277 26199 ft 312 kts 250°
2026-04-08 12:35 57.83392 0.04469 26197 ft 313 kts 250°
2026-04-08 12:35 57.82593 0.00729 26194 ft 312 kts 249°
2026-04-08 12:36 57.81778 -0.03057 26193 ft 313 kts 249°
2026-04-08 12:36 57.80961 -0.06853 26193 ft 313 kts 249°
2026-04-08 12:36 57.80147 -0.10641 26192 ft 313 kts 249°
2026-04-08 12:36 57.79326 -0.14447 26192 ft 314 kts 249°
2026-04-08 12:37 57.78507 -0.18226 26193 ft 313 kts 249°
2026-04-08 12:37 57.77698 -0.21964 26193 ft 309 kts 249°
2026-04-08 12:37 57.76915 -0.25626 25866 ft 297 kts 249°
2026-04-08 12:37 57.76168 -0.29094 25364 ft 276 kts 249°
2026-04-08 12:38 57.75459 -0.32327 24826 ft 260 kts 248°
2026-04-08 12:38 57.74772 -0.35399 24270 ft 264 kts 247°
2026-04-08 12:38 57.74051 -0.38668 23742 ft 273 kts 248°
2026-04-08 12:38 57.73347 -0.41974 23164 ft 278 kts 248°
2026-04-08 12:39 57.72606 -0.45333 22625 ft 280 kts 247°
2026-04-08 12:39 57.71860 -0.48709 22110 ft 280 kts 248°
2026-04-08 12:39 57.71138 -0.52042 21614 ft 279 kts 247°
2026-04-08 12:39 57.70395 -0.55396 21124 ft 278 kts 247°
2026-04-08 12:40 57.69658 -0.58729 20641 ft 276 kts 247°
2026-04-08 12:40 57.68935 -0.62032 20170 ft 273 kts 247°
2026-04-08 12:40 57.68204 -0.65314 19697 ft 271 kts 246°
2026-04-08 12:40 57.67497 -0.68512 19240 ft 268 kts 247°
2026-04-08 12:41 57.66790 -0.71712 18791 ft 265 kts 246°
2026-04-08 12:41 57.66081 -0.74880 18318 ft 262 kts 246°
2026-04-08 12:41 57.65387 -0.78011 17796 ft 259 kts 246°
2026-04-08 12:41 57.64696 -0.81110 17279 ft 257 kts 246°
2026-04-08 12:42 57.64009 -0.84176 16760 ft 255 kts 246°
2026-04-08 12:42 57.63341 -0.87183 16276 ft 252 kts 246°
2026-04-08 12:42 57.62663 -0.90194 15780 ft 250 kts 245°
2026-04-08 12:42 57.61996 -0.93173 15293 ft 248 kts 246°
2026-04-08 12:43 57.61336 -0.96122 14809 ft 245 kts 245°
2026-04-08 12:43 57.60673 -0.99050 14330 ft 243 kts 245°
2026-04-08 12:43 57.60025 -1.01951 13848 ft 241 kts 245°
2026-04-08 12:43 57.59383 -1.04786 13324 ft 239 kts 245°
2026-04-08 12:44 57.58739 -1.07633 12798 ft 237 kts 245°
2026-04-08 12:44 57.58106 -1.10450 12286 ft 234 kts 245°
2026-04-08 12:44 57.57469 -1.13244 11778 ft 233 kts 245°
2026-04-08 12:44 57.56844 -1.16014 11279 ft 231 kts 245°
2026-04-08 12:45 57.56219 -1.18762 10782 ft 229 kts 245°
2026-04-08 12:45 57.55606 -1.21453 10313 ft 227 kts 246°
2026-04-08 12:45 57.55005 -1.24095 10047 ft 217 kts 245°
2026-04-08 12:45 57.54409 -1.26697 9501 ft 219 kts 245°
2026-04-08 12:46 57.53812 -1.29333 8970 ft 220 kts 245°
2026-04-08 12:46 57.53218 -1.31928 8453 ft 220 kts 245°
2026-04-08 12:46 57.52610 -1.34583 7933 ft 222 kts 245°
2026-04-08 12:46 57.52000 -1.37248 7451 ft 230 kts 245°
2026-04-08 12:47 57.51369 -1.40029 6985 ft 235 kts 245°
2026-04-08 12:47 57.50723 -1.42842 6525 ft 237 kts 245°
2026-04-08 12:47 57.50072 -1.45668 6041 ft 238 kts 245°
2026-04-08 12:47 57.49424 -1.48509 5562 ft 238 kts 245°
2026-04-08 12:48 57.49212 -1.49432 5404 ft 238 kts 245°
2026-04-08 12:48 57.48999 -1.50350 5287 ft 236 kts 245°
2026-04-08 12:48 57.48363 -1.53080 5175 ft 224 kts 245°
2026-04-08 12:48 57.47889 -1.55763 5146 ft 213 kts 253°
2026-04-08 12:49 57.47488 -1.58357 5131 ft 204 kts 250°
2026-04-08 12:49 57.47045 -1.60823 5128 ft 198 kts 249°
2026-04-08 12:49 57.46633 -1.63242 5127 ft 195 kts 251°
2026-04-08 12:49 57.46241 -1.65656 4931 ft 202 kts 250°
2026-04-08 12:50 57.45808 -1.68189 4638 ft 208 kts 251°
2026-04-08 12:50 57.45382 -1.70778 4363 ft 211 kts 251°
2026-04-08 12:50 57.44939 -1.73384 4211 ft 212 kts 250°
2026-04-08 12:50 57.44493 -1.76009 4166 ft 214 kts 251°
2026-04-08 12:51 57.44059 -1.78640 4154 ft 216 kts 251°
2026-04-08 12:51 57.43600 -1.81306 4158 ft 217 kts 251°
2026-04-08 12:51 57.43151 -1.83986 4151 ft 219 kts 252°
2026-04-08 12:51 57.42697 -1.86685 4153 ft 219 kts 251°
2026-04-08 12:52 57.42232 -1.89391 4159 ft 219 kts 251°
2026-04-08 12:52 57.41781 -1.92069 4153 ft 220 kts 252°
2026-04-08 12:52 57.41324 -1.94764 4158 ft 219 kts 251°
2026-04-08 12:52 57.40146 -2.01651 4153 ft 219 kts 251°
2026-04-08 12:53 57.38272 -2.12529 4149 ft 221 kts 252°
2026-04-08 12:53 57.36395 -2.23435 4158 ft 222 kts 252°
2026-04-08 12:53 57.35332 -2.28259 4130 ft 218 kts 230°
2026-04-08 12:53 57.34153 -2.29791 4126 ft 208 kts 201°
2026-04-08 12:54 57.32731 -2.29918 4119 ft 209 kts 169°
2026-04-08 12:54 57.31469 -2.28602 4128 ft 209 kts 146°
2026-04-08 12:54 57.30247 -2.27078 3786 ft 215 kts 160°
2026-04-08 12:54 57.28927 -2.26199 3295 ft 190 kts 168°
2026-04-08 12:55 57.27710 -2.25435 2675 ft 183 kts 163°
2026-04-08 12:55 57.26549 -2.24529 2135 ft 176 kts 162°
2026-04-08 12:55 57.25506 -2.23709 1838 ft 160 kts 163°
2026-04-08 12:55 57.24491 -2.22952 1438 ft 154 kts 163°
2026-04-08 12:56 57.23503 -2.22217 950 ft 152 kts 165°
2026-04-08 12:56 57.22541 -2.21531 621 ft 143 kts 164°
2026-04-08 12:56 57.21661 -2.20858 367 ft 133 kts 162°
2026-04-08 12:56 57.20854 -2.20269 220 ft 115 kts 165°
2026-04-08 12:57 57.20208 -2.19796 213 ft 60 kts 158°
2026-04-08 12:57 57.20107 -2.19763 208 ft 0 kts 298°
2026-04-08 12:57 57.20186 -2.19884 209 ft 19 kts 319°
2026-04-08 12:57 57.20285 -2.20052 213 ft 19 kts 321°
2026-04-08 12:58 57.20375 -2.20213 209 ft 16 kts 262°
2026-04-08 12:58 57.20300 -2.20294 209 ft 12 kts 162°
2026-04-08 12:58 57.20230 -2.20250 208 ft 8 kts 179°
2026-04-08 12:58 57.20208 -2.20282 213 ft 2 kts 248°
2026-04-08 12:59 57.20206 -2.20289 211 ft 3 kts 247°
2026-04-08 12:59 57.20196 -2.20337 213 ft 0 kts 248°
2026-04-08 12:59 57.20194 -2.20345 211 ft 0 kts 248°